アサシン彗星

C/2017 O1 ( ASASSN )

English version
Home page
Updated on June 15, 2021

---------------------------------------------------------------------

・ プロフィール

発見日 2017年7月19日
発見光度 15.3等
発見者 All-Sky Automated Survey for Supernovae (ASASSN)

・ 写真集

・ 軌道要素

Epoch 2017 Oct. 14.0 TT = JDT 2458040.5                                         
T 2017 Oct. 14.78520 TT                                 Rudenko                 
q   1.4986872            (2000.0)            P               Q                  
z  +0.0023851      Peri.   20.90788     +0.72168428     -0.63351840             
 +/-0.0000008      Node    25.80948     +0.50849157     +0.21172276             
e   0.9964255      Incl.   39.84841     +0.46968938     +0.74419615             
From 2902 observations 2017 July 19-2019 Mar. 12, mean residual 0".6.           

・ 星図

・ 光度変化

        m1 = 5.0 + 5 logΔ + 20.0 log r(t + 35)

---------------------------------------------------------------------

軌道要素はM.P.E.C. 2021-L04に掲載されたものです。
星図はステラナビゲータ Ver.10 (アストロアーツ) で作成したものです。
光度グラフはComet for Windowsで作成したものです。

---------------------------------------------------------------------

Copyright(C) Seiichi Yoshida (comet@aerith.net). All rights reserved.